Regional Weather Roundup
Issued by NWS

Home | Current Version | Previous Version | Text Only | Print | Product List | Glossary Off
Versions: 1 2 3 4 5 6 7 8 9 10 11 12 13 14 15 16 17 18 19 20 21 22 23 24 25 26 27 28 29 30 31 32 33 34 35 36 37 38 39 40 41 42 43 44 45 46 47 48 49 50

000
ASUS43 KDMX 011907
RWRIA

WEATHER ROUNDUP FOR IOWA
NATIONAL WEATHER SERVICE DES MOINES IA
200 PM CDT WED OCT 01 2014

NOTE: "FAIR" INDICATES FEW OR NO CLOUDS BELOW 12,000 FEET WITH NO
SIGNIFICANT WEATHER AND/OR OBSTRUCTIONS TO VISIBILITY.

* - THESE STATIONS ARE NOT NWS STATIONS...THUS NOT UNDER NWS
QUALITY CONTROL.  THEY ALSO DO NOT REPORT WEATHER SUCH
AS PRECIPITATION OR FOG.

IAZ001>003-012>014-020>022-031>034-043>046-012000-
   NORTHWEST IOWA

CITY           SKY/WX    TMP DP  RH WIND       PRES   REMARKS
CARROLL *      MOSUNNY   73  63  68 SE7       29.75F
CHEROKEE *     MOSUNNY   72  61  68 SW5       29.75R
DENISON *      MOSUNNY   73  63  68 CALM      29.72F
LE MARS *      MOSUNNY   73  61  64 S10       29.74S
ORANGE CITY *  PTSUNNY   73  57  56 SW7       29.74S
SHELDON *      PTSUNNY   72  61  68 VRB5      29.73F
SIOUX CITY     SUNNY     76  60  57 VRB5      29.74S
SPENCER        CLOUDY    64  58  80 SW6       29.77R
STORM LAKE *   MOSUNNY   72  59  64 VRB3      29.76S
$$

IAZ055>058-069>071-079>083-090>094-012000-
   SOUTHWEST IOWA

CITY           SKY/WX    TMP DP  RH WIND       PRES   REMARKS
ATLANTIC *     CLOUDY    68  64  88 CALM      29.76S
AUDUBON *      PTSUNNY   70  63  78 S7        29.77F
CLARINDA *     CLOUDY    73  66  78 S9        29.76F
COUNCIL BLFS * MOSUNNY   73  66  78 VRB5      29.73F
CRESTON *      CLOUDY    68  64  88 S13       29.77F
HARLAN  *      SUNNY     72  66  83 VRB5G13   29.78F
LAMONI         CLOUDY    67  64  90 SE7       29.77F
RED OAK *      CLOUDY    72  68  88 SW5       29.75F
SHENANDOAH *   CLOUDY    72  68  88 VRB5      29.75F
$$

IAZ047>049-059>061-072>074-084-012000-
   CENTRAL IOWA

CITY           SKY/WX    TMP DP  RH WIND       PRES   REMARKS
AMES           PTSUNNY   68  63  84 S8        29.77F
ANKENY *       CLOUDY    70  64  83 S9        29.77F
CHARITON *     CLOUDY    68  63  83 S13G18    29.78F
DES MOINES     CLOUDY    70  62  76 S14       29.77F
GRINNELL*      CLOUDY    66  61  82 S9        29.80F
KNOXVILLE *    CLOUDY    68  63  83 S12       29.77F
MARSHALLTOWN   PTSUNNY   68  60  75 S15G22    29.78F
PELLA *        PTSUNNY   70  63  78 S13       29.80F
PERRY *        CLOUDY    68  64  88 S8        29.77S
$$

IAZ004>006-015-016-023>025-035-036-012000-
   NORTH CENTRAL IOWA

CITY           SKY/WX    TMP DP  RH WIND       PRES   REMARKS
ALGONA *       CLOUDY    68  63  83 S14       29.76F
CLARION *      CLOUDY    63  63 100 S13       29.78F
ESTHERVILLE    PTSUNNY   65  61  87 S9        29.75F
FORT DODGE *   CLOUDY    66  61  82 S10       29.78S
MASON CITY     CLOUDY    57  56  96 S10       29.81S FOG
FOREST CITY *  CLOUDY    59  59 100 SE10      29.79F
IOWA FALLS *   CLOUDY    64  59  82 S7        29.80F
$$

IAZ007>011-017>019-026>030-037>042-050>054-066-012000-
   NORTHEAST IOWA

CITY           SKY/WX    TMP DP  RH WIND       PRES   REMARKS
CEDAR RAPIDS   PTSUNNY   64  57  77 S10       29.81F
CHARLES CITY * CLOUDY    59  55  88 SE6       29.82F
CLINTON *      CLOUDY    70  55  60 S13       29.87F
DECORAH *      PTSUNNY   63  54  72 VRB7G13   29.82F
MONTICELLO *   SUNNY     68  55  64 SE13      29.83S
OELWEIN *      PTSUNNY   68  55  64 S13G18    29.82F
WATERLOO       PTSUNNY   67  57  70 S10       29.79F
$$

IAZ064-065-067-068-078-012000-
   EAST CENTRAL IOWA

CITY           SKY/WX    TMP DP  RH WIND       PRES   REMARKS
IOWA CITY      LGT RAIN  63  58  83 S8        29.84F
MT. PLEASANT * CLOUDY    63  61  94 SE7       29.83F FOG
MUSCATINE *    MOSUNNY   66  59  77 S9        29.82F
QUAD CITIES    CLOUDY    71  57  61 S13       29.83
$$

IAZ062-063-075>077-085>089-095>099-012000-
   SOUTHEAST IOWA

CITY           SKY/WX    TMP DP  RH WIND       PRES   REMARKS
BURLINGTON     LGT RAIN  65  59  81 S9        29.86R
FAIRFIELD *      N/A     63  59  88 S12G20    29.83S
FORT MADISON * RAIN      64  61  88 SE8       29.85F
KEOKUK *       CLOUDY    63  61  94 SE5       29.85S FOG
OSKALOOSA *    CLOUDY    64  63  94 S14       29.81F
CENTERVILLE *  CLOUDY    64  64 100 SE9       29.81F
OTTUMWA        CLOUDY    64  61  90 S10       29.79F FOG
WASHINGTON *   CLOUDY    63  61  94 S10       29.82F
$$

ABBREVIATIONS USED IN REMARKS
   TC - TEMPERATURES IN CELSIUS
  WCI - WIND CHILL INDEX
   HX - HEAT INDEX
  VSB - VISIBILITY
$$




USA.gov is the U.S. government's official web portal to all federal, state and local government web resources and services.